Chelan, Washington, United States (98816)
Lat: 47.84N, Lon: 120.02W
Wx Zone: WAZ041
Local Info
Past Weather Observations for Today

NOTE: This archive is for the closest National Weather Service station to Chelan. Information may differ from the station used for current weather conditions.

Click here for Long-term Archive

Time Weather Temperature Dewpoint Humidity Pressure Winds Precip Visibility
19:45
Overcast
Light Rain
37°F / 3°C 36°F / 2°C 93% 29.95 in
(1014 mb)
Calm 0.03 in
(0.76 mm)
2 1/2SM
18:55
Overcast
Fog And Mist
37°F / 3°C 36°F / 2°C 93% 29.95 in
(1014 mb)
Calm 0.00 in
(0.00 mm)
1 3/4SM
18:35
Overcast
Fog And Mist
37°F / 3°C 36°F / 2°C 93% 29.95 in
(1014 mb)
E 3.5 mph
(E 6 kph)
0.00 in
(0.00 mm)
2SM
18:11
Overcast
Light Rain
37°F / 3°C 36°F / 2°C 93% 29.95 in
(1014 mb)
E 4.6 mph
(E 7 kph)
0.00 in
(0.00 mm)
2 1/2SM
17:55
Overcast
Fog And Mist
37°F / 3°C 36°F / 2°C 93% 29.95 in
(1014 mb)
ENE 3.5 mph
(ENE 6 kph)
- 3SM
17:44
Overcast
Fog And Mist
37°F / 3°C 36°F / 2°C 93% 29.95 in
(1014 mb)
E 3.5 mph
(E 6 kph)
- 4SM
17:37
Overcast
Fog And Mist
37°F / 3°C 36°F / 2°C 93% 29.95 in
(1014 mb)
Calm - 2 1/2SM
17:24
Overcast
Fog And Mist
39°F / 4°C 36°F / 2°C 87% 29.95 in
(1014 mb)
Calm - 3SM
17:05
Overcast
Fog And Mist
39°F / 4°C 36°F / 2°C 87% 29.98 in
(1015 mb)
Calm - 2 1/2SM
16:55
Overcast
Fog And Mist
39°F / 4°C 36°F / 2°C 87% 29.98 in
(1015 mb)
Calm - 3SM
16:31
Overcast
Fog And Mist
39°F / 4°C 36°F / 2°C 87% 29.98 in
(1015 mb)
Calm - 5SM
15:55
Overcast
39°F / 4°C 36°F / 2°C 87% 29.98 in
(1015 mb)
Calm 0.00 in
(0.00 mm)
7SM
15:32
Overcast
39°F / 4°C 36°F / 2°C 87% 29.98 in
(1015 mb)
Calm 0.00 in
(0.00 mm)
7SM
14:55
Overcast
39°F / 4°C 36°F / 2°C 87% 29.98 in
(1015 mb)
E 3.5 mph
(E 6 kph)
- 7SM
13:55
Overcast
39°F / 4°C 36°F / 2°C 87% 29.98 in
(1015 mb)
E 3.5 mph
(E 6 kph)
- 7SM
12:55
Overcast
Fog And Mist
39°F / 4°C 36°F / 2°C 87% 29.98 in
(1015 mb)
SE 3.5 mph
(SE 6 kph)
- 4SM
11:55
Overcast
Fog And Mist
39°F / 4°C 36°F / 2°C 87% 30.01 in
(1016 mb)
Calm - 4SM
11:48
Overcast
Fog And Mist
39°F / 4°C 36°F / 2°C 87% 30.01 in
(1016 mb)
E 4.6 mph
(E 7 kph)
- 4SM
11:36
Overcast
Fog And Mist
39°F / 4°C 36°F / 2°C 87% 30.01 in
(1016 mb)
E 3.5 mph
(E 6 kph)
- 3SM
11:07
Overcast
Fog And Mist
39°F / 4°C 36°F / 2°C 87% 30.01 in
(1016 mb)
Calm - 3SM
10:55
Overcast
Fog And Mist
37°F / 3°C 36°F / 2°C 93% 30.01 in
(1016 mb)
Calm - 3SM
10:29
Overcast
Fog And Mist
37°F / 3°C 36°F / 2°C 93% 30.01 in
(1016 mb)
E 4.6 mph
(E 7 kph)
- 3SM
10:05
Overcast
Fog And Mist
37°F / 3°C 36°F / 2°C 93% 30.04 in
(1017 mb)
Calm - 2 1/2SM
09:55
Overcast
Fog And Mist
37°F / 3°C 36°F / 2°C 93% 30.04 in
(1017 mb)
Calm - 3SM
08:55
Overcast
Fog And Mist
37°F / 3°C 36°F / 2°C 93% 30.01 in
(1016 mb)
Calm - 2SM
07:55
Overcast
37°F / 3°C 36°F / 2°C 93% 30.01 in
(1016 mb)
Calm - 7SM
07:41
Overcast
37°F / 3°C 36°F / 2°C 93% 30.01 in
(1016 mb)
Calm - 7SM
07:12
Overcast
Fog And Mist
37°F / 3°C 36°F / 2°C 93% 30.01 in
(1016 mb)
Calm - 5SM
07:04
Overcast
Fog And Mist
37°F / 3°C 34°F / 1°C 87% 30.01 in
(1016 mb)
Calm - 4SM
06:57
Overcast
Fog And Mist
37°F / 3°C 34°F / 1°C 87% 30.01 in
(1016 mb)
Calm - 2 1/2SM
06:55
Overcast
Fog And Mist
37°F / 3°C 34°F / 1°C 87% 30.01 in
(1016 mb)
Calm - 1 3/4SM
06:35
Overcast
Fog And Mist
36°F / 2°C 36°F / 2°C 100% 30.01 in
(1016 mb)
Calm - 1 3/4SM
06:02
Overcast
37°F / 3°C 34°F / 1°C 87% 29.98 in
(1015 mb)
Calm - 10SM
05:55
Overcast
37°F / 3°C 34°F / 1°C 87% 29.98 in
(1015 mb)
E 3.5 mph
(E 6 kph)
- 10SM
05:17
Overcast
Fog And Mist
36°F / 2°C 34°F / 1°C 93% 29.98 in
(1015 mb)
E 4.6 mph
(E 7 kph)
- 3SM
05:09
Overcast
Fog And Mist
36°F / 2°C 34°F / 1°C 93% 29.98 in
(1015 mb)
Calm - 2 1/2SM
04:55
Overcast
Fog And Mist
36°F / 2°C 34°F / 1°C 93% 29.98 in
(1015 mb)
Calm - 4SM
03:55
Overcast
Fog And Mist
36°F / 2°C 34°F / 1°C 93% 30.01 in
(1016 mb)
Calm - 5SM
02:55
Overcast
Fog And Mist
37°F / 3°C 34°F / 1°C 87% 29.98 in
(1015 mb)
Calm - 5SM
01:55
Overcast
36°F / 2°C 34°F / 1°C 93% 29.98 in
(1015 mb)
Calm - 8SM
00:55
Overcast
36°F / 2°C 34°F / 1°C 93% 29.98 in
(1015 mb)
Calm - 8SM
Time Weather Temperature Dewpoint Humidity Pressure Winds Precip Visibility


Weather for websites

WeatherForYou.com, LLC is not responsible for any damages or problems caused by this service. Current weather conditions are obtained from the closest station including government and personal stations which may have varying degrees of accuracy. Weather forecasts are derived from the NOAA NDFD. Like all things, this site belongs to Jesus Christ... He just trusts me to maintain it. If you have any questions or comments email webmaster@weatherforyou.com

Copyright © 2014, WeatherForYou.com LLC. All rights reserved.